Location: Spruce Knob
(38.6995°N, 79.5330°W)
Time: 01:38:33
(UTC-05:00)

BlueWalker 3 - Pass Details

Date: 11 December 2022
Orbit: 499 x 517 km, 53.2° (Epoch: 02 February)

Event Time Altitude Azimuth Distance (km) Brightness Sun altitude
Rises 17:55:09 0° 314° (NW) 2,621 5.9 -11.2°
Maximum altitude 18:01:15 58° 38° (NE) 597 2.0 -12.3°
Enters shadow 18:04:59 10° 118° (ESE) 1,680 4.2 -13.0°
